Regional Weather Roundup
Issued by NWS

Home | Current Version | Previous Version | Graphics & Text | Print | Product List | Glossary Off
Versions: 1 2 3 4 5 6 7 8 9 10 11 12 13 14 15 16 17 18 19 20 21 22 23 24 25 26 27 28 29 30 31 32 33 34 35 36 37 38 39 40 41 42 43 44 45 46 47 48 49 50

000
ASUS43 KDMX 261908
RWRIA

WEATHER ROUNDUP FOR IOWA
NATIONAL WEATHER SERVICE DES MOINES IA
200 PM CDT TUE JUL 26 2016

NOTE: "FAIR" INDICATES FEW OR NO CLOUDS BELOW 12,000 FEET WITH NO
SIGNIFICANT WEATHER AND/OR OBSTRUCTIONS TO VISIBILITY.

* - THESE STATIONS ARE NOT NWS STATIONS...THUS NOT UNDER NWS
QUALITY CONTROL.  THEY ALSO DO NOT REPORT WEATHER SUCH
AS PRECIPITATION OR FOG.

IAZ001>003-012>014-020>022-031>034-043>046-262000-
   NORTHWEST IOWA

CITY           SKY/WX    TMP DP  RH WIND       PRES   REMARKS
CARROLL *      MOSUNNY   82  68  61 SE7       30.07F HX  85
CHEROKEE *     SUNNY     85  65  51 S10       30.05F HX  86
DENISON *      SUNNY     82  64  54 S7G14     30.05F HX  84
LE MARS *      SUNNY     86  68  54 S13       30.04F HX  89
SHELDON *      SUNNY     82  66  57 MISG      30.05F HX  85
SIOUX CITY     SUNNY     88  67  49 S12       30.04F HX  91
SPENCER        SUNNY     85  65  51 S12       30.06F HX  86
STORM LAKE *     N/A     82  66  57 S9        30.08F HX  85
$$

IAZ055>058-069>071-079>083-090>094-262000-
   SOUTHWEST IOWA

CITY           SKY/WX    TMP DP  RH WIND       PRES   REMARKS
ATLANTIC *     MOSUNNY   84  66  54 SE5       30.06F HX  86
CLARINDA *       N/A     84  68  58 MISG      30.08F HX  87
COUNCIL BLFS * SUNNY     84  64  51 E6        30.06F HX  86
CRESTON *      SUNNY     82  66  57 NE9       30.08F HX  85
HARLAN  *      MOSUNNY   82  68  61 SE8       30.09F HX  85
LAMONI         SUNNY     84  66  54 NE5       30.06F HX  86
RED OAK *      SUNNY     84  68  58 VRB7      30.06F HX  87
SHENANDOAH *   SUNNY     84  66  54 SE8       30.06F HX  86
$$

IAZ047>049-059>061-072>074-084-262000-
   CENTRAL IOWA

CITY           SKY/WX    TMP DP  RH WIND       PRES   REMARKS
AMES           MOSUNNY   83  67  58 SE3       30.07F HX  85
ANKENY *         N/A    N/A N/A N/A MISG        N/A
BOONE *        PTSUNNY   82  66  57 E6        30.07F HX  85
CHARITON *       N/A    N/A N/A N/A MISG        N/A
DES MOINES     MOSUNNY   86  63  45 E8        30.05F HX  87
GRINNELL*      MOSUNNY   83  63  50 E6        30.08F HX  84
KNOXVILLE *    SUNNY     82  63  51 CALM      30.05F HX  83
MARSHALLTOWN   SUNNY     84  66  54 E8        30.06F HX  86
NEWTON *       SUNNY     82  64  54 E5G12     30.06F HX  84
PELLA *        MOSUNNY   83  64  52 SE6       30.07F HX  85
PERRY *          N/A     84  67  58 SE5       30.07F HX  86
$$

IAZ004>006-015-016-023>025-035-036-262000-
   NORTH CENTRAL IOWA

CITY           SKY/WX    TMP DP  RH WIND       PRES   REMARKS
ALGONA *       SUNNY     84  68  58 S8G14     30.07F HX  87
ESTHERVILLE    SUNNY     83  67  58 S8        30.06F HX  85
FORT DODGE *   PTSUNNY   84  68  58 CALM      30.08F HX  87
MASON CITY     MOSUNNY   84  67  56 S5        30.09F HX  86
FOREST CITY *    N/A     82  63  51 S5        30.08S HX  83
IOWA FALLS *     N/A     84  65  53 SE5       30.09F HX  86
$$

IAZ007>011-017>019-026>030-037>042-050>054-066-262000-
   NORTHEAST IOWA

CITY           SKY/WX    TMP DP  RH WIND       PRES   REMARKS
CEDAR RAPIDS   SUNNY     83  66  56 N3        30.06F HX  85
CHARLES CITY * SUNNY     82  66  57 CALM      30.08F HX  85
CLINTON *      SUNNY     84  67  56 NW3       30.06  HX  86
DECORAH *      SUNNY     84  68  58 VRB3      30.06F HX  87
DUBUQUE        MOSUNNY   83  63  50 W3        30.08F HX  84
MONTICELLO *   MOSUNNY   82  64  54 CALM      30.06F HX  84
OELWEIN *      SUNNY     82  66  57 VRB3      30.08F HX  85
WATERLOO       MOSUNNY   83  65  54 CALM      30.05F HX  85
$$

IAZ064-065-067-068-078-262000-
   EAST CENTRAL IOWA

CITY           SKY/WX    TMP DP  RH WIND       PRES   REMARKS
DAVENPORT      MOSUNNY   84  63  49 CALM      30.06F HX  85
IOWA CITY      MOSUNNY   85  64  49 CALM      30.07F HX  86
MT. PLEASANT * MOSUNNY   85  66  52 NE5       30.05F HX  87
MUSCATINE *    MOSUNNY   84  64  51 VRB5      30.05F HX  86
QUAD CITIES    MOSUNNY   86  64  47 VRB5      30.04F HX  87
$$

IAZ062-063-075>077-085>089-095>099-262000-
   SOUTHEAST IOWA

CITY           SKY/WX    TMP DP  RH WIND       PRES   REMARKS
BURLINGTON     MOSUNNY   84  65  52 E5        30.04F HX  86
FAIRFIELD *    MOSUNNY   82  66  57 NE7       30.06F HX  85
KEOKUK *       MOSUNNY   82  64  54 CALM      30.04F HX  84
OSKALOOSA *    PTSUNNY   82  66  58 NE6       30.07F HX  84
CENTERVILLE *    N/A     82  66  57 CALM      30.08F HX  85
OTTUMWA        SUNNY     83  63  50 E8        30.04F HX  84
WASHINGTON *   MOSUNNY   82  66  57 VRB3      30.07F HX  85
$$

ABBREVIATIONS USED IN REMARKS
   TC - TEMPERATURES IN CELSIUS
  WCI - WIND CHILL INDEX
   HX - HEAT INDEX
  VSB - VISIBILITY
$$





USA.gov is the U.S. government's official web portal to all federal, state and local government web resources and services.